Flag for Germany Weather past 2 weeks in Fürstenfeldbruck, Bavaria, Germany

Now
43 °F

Overcast.


Feels Like: 36 °F
Forecast: 45 / 49 °F
Wind: 12 mph from Southwest

Location: Lechfeld

Current Time: Dec 18, 2014 at 5:41:08 AM

Latest Report: Dec 18, 2014 at 4:20 AM


Visibility: N/A

Pressure: 30.01 "Hg

Humidity: 87%

Dew point: 39 °F

Location of FürstenfeldbruckLocation

Historic Weather in Fürstenfeldbruck — Graph

°F

Fürstenfeldbruck temperature yesterday

Maximum temperature yesterday: 43 °F (at 2:20 PM)
Minimum temperature yesterday: 36 °F (at 4:20 AM)
Average temperature yesterday: 38 °F

Past Weeks' High & Low Weather Summary

 TemperatureHumidityPressure
High52 °F (Dec 14, 1:20 PM)100% (Dec 3, 4:20 AM)30.39 "Hg (Dec 3, 4:20 AM)
Low27 °F (Dec 10, 5:45 AM)49% (Dec 12, 9:20 PM)29.80 "Hg (Dec 12, 6:20 PM)
Average38 °F86%30.03 "Hg
* Reported Dec 3 4:20 AM — Dec 18 4:20 AM, Fürstenfeldbruck, Weather by CustomWeather, © 2014

Note: Actual official high and low records may vary slightly from our data, if they occured in-between our weather recording intervals... More about our weather records

Advertising

Fürstenfeldbruck weather history for previous 24 hours

 ConditionsComfort  
Time TempWeatherWind HumidityBarometerVisibility
4:20 AM
Dec 18
43 °FOvercast.12 mph87%30.01 "HgN/A
3:20 AM43 °FOvercast.14 mph87%30.01 "HgN/A
2:20 AM43 °FOvercast.14 mph87%30.01 "HgN/A
1:20 AM41 °FOvercast.13 mph93%29.98 "HgN/A
12:20 AM41 °FOvercast.16 mph93%29.95 "HgN/A
11:20 PM
Dec 17
41 °FOvercast.16 mph87%29.95 "HgN/A
10:20 PM39 °FMostly cloudy.14 mph93%29.92 "HgN/A
9:20 PM39 °FLight rain. Mostly cloudy.16 mph87%29.89 "HgN/A
8:20 PM37 °FLight rain. Mostly cloudy.15 mph93%29.89 "HgN/A
7:20 PM37 °FRain. Mostly cloudy.16 mph93%29.86 "HgN/A
6:20 PM37 °FRain. Mostly cloudy.14 mph93%29.86 "HgN/A
5:20 PM37 °FRain. Mostly cloudy.14 mph93%29.83 "Hg5 mi
4:20 PM39 °FRain. Mostly cloudy.15 mph87%29.80 "Hg5 mi
3:20 PM41 °FRain. More clouds than sun.17 mph81%29.80 "Hg6 mi
2:20 PM43 °FLight rain. Partly sunny.15 mph71%29.80 "HgN/A
1:20 PM41 °FBroken clouds.9 mph81%29.83 "HgN/A
12:20 PM41 °FPartly sunny.9 mph81%29.86 "HgN/A
11:20 AM41 °FBroken clouds.10 mph81%29.89 "HgN/A
10:20 AM39 °FBroken clouds.7 mph87%29.92 "HgN/A
9:20 AM36 °FBroken clouds.6 mph93%29.95 "HgN/A
8:20 AM36 °FPartly sunny.6 mph93%29.95 "HgN/A
7:20 AM36 °FPassing clouds.7 mph87%29.95 "HgN/A
6:20 AM36 °FPassing clouds.6 mph87%29.98 "HgN/A
5:20 AM36 °FPassing clouds.5 mph87%29.98 "HgN/A
Weather by CustomWeather, © 2014

See weather overviewHow to use our weather pages